Voltar ao catálogo

BREEZE-M DEB

LostHEO
NORAD 34252·DEBRIS·🇷🇺 Russia

Lançado Feb 28, 2006 de Baikonur Cosmodrome

Loading…

Próximas Passagens (próximas 24 horas)

TLE

ObsoletoSource: Space-Track

Época: Sep 9, 2025, 23:41 UTC

1 34252U 06006BT  25252.98713064  .00000558  00000-0  99233-3 0  9999
2 34252  51.6853  18.4618 5082912 230.6790  72.1721  5.25225453337835

Acompanhe BREEZE-M DEB em tempo real com AllMySat

Download on the App Store